[[{"header":{"parameterUnit":"m.s-1","parameterCategory":2,"la1":30.2991,"la2":30.254,"lo1":-89.0895,"lo2":-89.0444,"dy":0.0017,"dx":0.0017,"nx":28,"ny":28,"refTime":"2023-07-31T09:00:00:Z","depth":"0","parameterNumber":2,"parameterNumberName":"U-component_of_CURRENTS"},"data":[0,0,0,0,0,0,0,0,0,0,0,0,0,0,0,0,0,0,0,0,0,0,0,0,0,0,0,0,0,0,0,0,0,0,0,0,0,0,0,0,0,0,0,0,0,0,0,0,0,0,0,0,0,0,0,0,0,0,-0.3532,-0.3532,0,-0.3566,-0.3566,-0.3567,-0.3523,-0.3522,-0.352,-0.3518,-0.3497,-0.3498,-0.3499,0,0,0,0,0,0,0,0,0,0,0,0,0,-0.347,-0.3471,-0.3532,-0.3532,-0.3533,-0.3566,-0.3566,-0.3567,-0.3523,-0.3521,-0.352,-0.3518,-0.3497,-0.3498,-0.3499,0,0,0,0,0,0,0,0,0,0,0,0,0,-0.35,-0.3471,-0.3532,-0.3515,-0.3514,-0.3566,-0.3566,-0.3567,-0.3524,-0.3521,-0.3519,-0.3517,-0.3497,-0.3498,-0.3499,-0.3555,0,0,-0.3504,-0.3504,0,0,0,0,0,0,0,0,-0.3498,-0.3502,-0.3517,-0.3516,-0.3515,-0.3538,-0.3537,-0.356,-0.3524,-0.352,-0.3518,-0.3516,-0.3508,-0.3508,-0.352,-0.3554,-0.3553,-0.3504,-0.3505,-0.3505,-0.3506,0,0,0,0,0,0,0,-0.3496,-0.35,-0.3545,-0.3518,-0.3517,-0.352,-0.3521,-0.3541,-0.3526,-0.352,-0.3517,-0.3522,-0.3506,-0.3519,-0.3519,-0.3553,-0.3504,-0.3505,-0.3506,-0.3506,-0.3676,-0.368,0,0,0,0,0,0,-0.3493,-0.3499,-0.3544,-0.3546,-0.3501,-0.3523,-0.3524,-0.3533,-0.3527,-0.3524,-0.3524,-0.352,-0.3518,-0.3518,-0.3518,-0.3583,-0.3505,-0.3506,-0.3507,-0.3673,-0.3677,-0.3681,0,0,0,0,0,0,-0.3491,-0.3497,-0.3543,-0.3523,-0.3529,-0.3526,-0.3537,-0.3535,-0.3538,-0.353,-0.3525,-0.3527,-0.3516,-0.3516,-0.3549,-0.3582,-0.3507,-0.3508,-0.3668,-0.3674,-0.3679,-0.3713,0,0,0,0,0,0,-0.349,-0.3496,-0.3495,-0.3523,-0.353,-0.3584,-0.3539,-0.3537,-0.3545,-0.354,-0.3532,-0.3528,-0.3514,-0.3547,-0.355,-0.3582,-0.3509,-0.3663,-0.3671,-0.3677,-0.3708,-0.3719,-0.373,0,0,0,0,0,-0.3487,-0.3508,-0.3494,-0.3499,-0.353,-0.3586,-0.3591,-0.358,-0.3547,-0.357,-0.3563,-0.3527,-0.3593,-0.3551,-0.3553,-0.3587,-0.366,-0.3669,-0.3677,-0.3703,-0.3717,-0.3729,0,0,0,0,0,0,-0.3482,-0.3507,-0.3492,-0.3517,-0.3549,-0.3579,-0.359,-0.3586,-0.36,-0.3588,-0.3564,-0.3563,-0.3617,-0.361,-0.3563,-0.3666,-0.3626,-0.3636,-0.3645,-0.3659,-0.367,-0.3657,-0.351,0,0,0,0,0,-0.348,-0.3498,-0.3528,-0.3548,-0.3561,-0.3574,-0.3588,-0.3595,-0.3613,-0.3615,-0.3613,-0.3625,-0.3661,-0.366,-0.3698,-0.3736,-0.3708,-0.377,-0.3781,-0.3789,-0.3788,-0.3773,-0.378,-0.3708,-0.3708,-0.3708,0,0,-0.3481,-0.3498,-0.3505,-0.3547,-0.3561,-0.3607,-0.3577,-0.3616,-0.3651,-0.3613,-0.3652,-0.3671,-0.3688,-0.3744,-0.3765,-0.3729,-0.3801,-0.38,-0.3806,-0.3801,-0.3782,-0.3788,-0.3793,-0.3714,-0.3713,-0.3712,0,0,-0.351,-0.3509,-0.3536,-0.3576,-0.3614,-0.3631,-0.3644,-0.3684,-0.3691,-0.3745,-0.3735,-0.3769,-0.3811,-0.3829,-0.3841,-0.394,-0.3875,-0.396,-0.3976,-0.3961,-0.3965,-0.3968,-0.3944,-0.3945,-0.3943,-0.3943,-0.3943,0,-0.3501,-0.3538,-0.3556,-0.3607,-0.3629,-0.3644,-0.3686,-0.3721,-0.3769,-0.3776,-0.3766,-0.3838,-0.3856,-0.3902,-0.3944,-0.396,-0.393,-0.391,-0.3968,-0.397,-0.3972,-0.3948,-0.3947,-0.3946,-0.3945,-0.3945,-0.3945,0,-0.3552,-0.359,-0.3616,-0.367,-0.371,-0.3752,-0.3801,-0.3837,-0.384,-0.3862,-0.3914,-0.3941,-0.3967,-0.3998,-0.3998,-0.4038,-0.4006,-0.3991,-0.3914,-0.398,-0.3952,-0.3951,-0.395,-0.3949,-0.3948,-0.3947,0,0,-0.3455,-0.3618,-0.361,-0.3651,-0.3738,-0.3768,-0.3843,-0.389,-0.3907,-0.3961,-0.397,-0.4057,-0.4044,-0.4062,-0.4066,-0.4058,-0.4066,-0.4027,-0.4025,-0.3968,-0.4014,-0.3701,-0.367,-0.4037,-0.4038,-0.4038,-0.3986,0,-0.3457,-0.3562,-0.3643,-0.3721,-0.376,-0.3828,-0.3888,-0.3944,-0.3973,-0.4,-0.4024,-0.4054,-0.4075,-0.4073,-0.408,-0.4078,-0.4065,-0.408,-0.399,-0.3988,-0.367,-0.3659,-0.348,-0.3391,-0.3985,-0.3984,-0.3984,0,-0.3406,-0.3499,-0.3576,-0.3723,-0.3741,-0.3794,-0.3844,-0.3918,-0.3983,-0.4008,-0.4039,-0.4054,-0.4087,-0.4077,-0.4083,-0.4082,-0.4058,-0.4044,-0.404,-0.3729,-0.3671,-0.3426,-0.3367,-0.3335,-0.3982,-0.3982,-0.3982,0,-0.3224,-0.3413,-0.3462,-0.3512,-0.3692,-0.3722,-0.3801,-0.3885,-0.3936,-0.3991,-0.401,-0.4049,-0.4049,-0.4047,-0.402,-0.4055,-0.3977,-0.402,-0.3718,-0.3698,-0.3516,-0.3474,-0.3376,-0.4003,-0.4003,-0.4004,-0.4004,0,-0.3119,-0.3154,-0.3387,-0.34,-0.348,-0.3621,-0.3678,-0.3763,-0.3861,-0.3918,-0.3984,-0.4012,-0.4037,-0.4,-0.3995,-0.3805,-0.3951,-0.3697,-0.3644,-0.3522,-0.3484,-0.342,-0.3496,-0.4002,-0.4002,-0.4002,-0.4003,0,-0.2869,-0.3022,-0.3095,-0.3304,-0.3383,-0.341,-0.3631,-0.3692,-0.3783,-0.3851,-0.3867,-0.3962,-0.3907,-0.3865,-0.3834,-0.3717,-0.3515,-0.3509,-0.3337,-0.3259,-0.2893,-0.2978,-0.284,-0.2768,-0.3175,-0.3167,-0.316,0,-0.274,-0.2758,-0.2982,-0.3073,-0.3167,-0.3297,-0.3415,-0.3601,-0.3685,-0.3829,-0.3849,-0.3817,-0.3755,-0.3528,-0.3326,-0.3131,-0.3236,-0.2838,-0.2855,-0.2795,-0.286,-0.2963,-0.2927,-0.2678,-0.2668,-0.2659,-0.2653,0,-0.2513,-0.2583,-0.2677,-0.2891,-0.3027,-0.32,-0.3379,-0.3421,-0.3632,-0.3656,-0.3663,-0.3603,-0.3373,-0.3037,-0.2726,-0.2643,-0.2733,-0.2645,-0.2667,-0.2489,-0.2524,-0.2453,-0.2813,-0.2576,-0.2584,-0.259,-0.2594,-0.2597,-0.2322,-0.2371,-0.2547,-0.2733,-0.2921,-0.309,-0.3104,-0.3271,-0.3325,-0.3239,-0.3364,-0.3038,-0.2764,-0.228,-0.2211,-0.1913,-0.2146,-0.186,-0.1985,-0.2107,-0.1961,-0.2087,-0.1714,-0.1717,-0.1719,-0.1721,-0.1723,0,-0.2141,-0.2289,-0.244,-0.2674,-0.2818,-0.2958,-0.3093,-0.3002,-0.2948,-0.2771,-0.263,-0.2073,-0.1827,-0.1649,-0.1401,-0.1302,-0.1393,-0.1319,-0.1535,-0.1542,-0.1705,-0.1597,-0.1077,-0.1077,-0.1077,-0.1077,-0.1077,-0.1077,-0.2074,-0.2185,-0.2323,-0.2539,-0.2684,-0.269,-0.2674,-0.2501,-0.2279,-0.1759,-0.1285,-0.103,-0.1002,-0.119,-0.1168,-0.112,-0.1215,-0.1119,-0.1241,-0.147,-0.1536,-0.16,-0.1511,-0.0982,-0.0982,-0.1014,-0.1015,-0.1015]},{"header":{"parameterUnit":"m.s-1","parameterCategory":2,"la1":30.2991,"la2":30.254,"lo1":-89.0895,"lo2":-89.0444,"dy":0.0017,"dx":0.0017,"nx":28,"ny":28,"refTime":"2023-07-31T09:00:00:Z","depth":"0","parameterNumber":3,"parameterNumberName":"V-component_of_CURRENTS"},"data":[0,0,0,0,0,0,0,0,0,0,0,0,0,0,0,0,0,0,0,0,0,0,0,0,0,0,0,0,0,0,0,0,0,0,0,0,0,0,0,0,0,0,0,0,0,0,0,0,0,0,0,0,0,0,0,0,0,0,-0.105,-0.105,0,-0.1019,-0.1019,-0.1018,-0.0943,-0.0942,-0.094,-0.0939,-0.0782,-0.078,-0.0777,0,0,0,0,0,0,0,0,0,0,0,0,0,-0.0996,-0.0997,-0.105,-0.105,-0.105,-0.1019,-0.1019,-0.1018,-0.0943,-0.0941,-0.094,-0.0938,-0.0783,-0.078,-0.0776,0,0,0,0,0,0,0,0,0,0,0,0,0,-0.0996,-0.0998,-0.105,-0.101,-0.1006,-0.102,-0.1019,-0.1018,-0.0944,-0.0941,-0.0939,-0.0937,-0.0784,-0.078,-0.0776,-0.0792,0,0,-0.0763,-0.0761,0,0,0,0,0,0,0,0,-0.0996,-0.0998,-0.1016,-0.1013,-0.1009,-0.0984,-0.0942,-0.0937,-0.0944,-0.0966,-0.0939,-0.0936,-0.0841,-0.0832,-0.083,-0.0785,-0.0778,-0.0763,-0.076,-0.0758,-0.0757,0,0,0,0,0,0,0,-0.0996,-0.0998,-0.1036,-0.1016,-0.1012,-0.0977,-0.0975,-0.0941,-0.0912,-0.0963,-0.0958,-0.0959,-0.0837,-0.0835,-0.0826,-0.0776,-0.0763,-0.0759,-0.0756,-0.0755,-0.0687,-0.0688,0,0,0,0,0,0,-0.1009,-0.0999,-0.1037,-0.1035,-0.0999,-0.098,-0.0978,-0.0993,-0.0915,-0.0902,-0.096,-0.0955,-0.0843,-0.0831,-0.082,-0.0833,-0.0758,-0.0754,-0.0752,-0.0686,-0.0687,-0.0688,0,0,0,0,0,0,-0.1008,-0.1014,-0.1038,-0.1016,-0.1017,-0.0984,-0.1001,-0.0993,-0.099,-0.0914,-0.0898,-0.0965,-0.0841,-0.0826,-0.079,-0.0826,-0.0752,-0.0748,-0.0685,-0.0687,-0.0688,-0.086,0,0,0,0,0,0,-0.1007,-0.1014,-0.1034,-0.1018,-0.1019,-0.106,-0.1003,-0.0994,-0.0994,-0.0987,-0.0913,-0.0896,-0.0838,-0.0797,-0.0786,-0.0819,-0.0745,-0.0684,-0.0686,-0.0687,-0.0853,-0.0867,-0.0878,0,0,0,0,0,-0.1006,-0.1059,-0.1036,-0.1041,-0.1048,-0.1061,-0.106,-0.1025,-0.0997,-0.1011,-0.0951,-0.0898,-0.0797,-0.0795,-0.0782,-0.0814,-0.0684,-0.0685,-0.0687,-0.0847,-0.0864,-0.0878,0,0,0,0,0,0,-0.1049,-0.1056,-0.103,-0.1082,-0.1071,-0.1049,-0.1069,-0.104,-0.1009,-0.0999,-0.0915,-0.0895,-0.0874,-0.0818,-0.0817,-0.0794,-0.073,-0.0729,-0.0856,-0.0871,-0.0883,-0.0951,-0.0742,0,0,0,0,0,-0.1069,-0.1105,-0.1091,-0.1128,-0.1131,-0.1099,-0.1101,-0.1079,-0.1049,-0.1034,-0.0975,-0.0913,-0.0874,-0.0852,-0.0801,-0.0801,-0.076,-0.0807,-0.082,-0.0831,-0.0875,-0.0889,-0.0909,-0.0694,-0.0694,-0.0694,0,0,-0.1088,-0.1102,-0.1117,-0.1138,-0.1129,-0.1156,-0.1096,-0.1115,-0.113,-0.1022,-0.1018,-0.0955,-0.088,-0.0872,-0.0858,-0.0831,-0.0851,-0.0833,-0.0844,-0.0882,-0.0894,-0.0915,-0.0934,-0.0695,-0.0695,-0.0694,0,0,-0.1158,-0.1166,-0.1215,-0.1224,-0.1229,-0.1211,-0.1221,-0.12,-0.1183,-0.1171,-0.1098,-0.1077,-0.0992,-0.0974,-0.0947,-0.1003,-0.0915,-0.0958,-0.1089,-0.1102,-0.1122,-0.1139,-0.1042,-0.105,-0.0971,-0.0972,-0.0972,0,-0.1174,-0.1253,-0.1229,-0.1281,-0.1307,-0.1243,-0.13,-0.1279,-0.1242,-0.1254,-0.1183,-0.1121,-0.1056,-0.1085,-0.1097,-0.1041,-0.0989,-0.1043,-0.1125,-0.1141,-0.1156,-0.1054,-0.106,-0.098,-0.0979,-0.0978,-0.0977,0,-0.1266,-0.1341,-0.1379,-0.1419,-0.1432,-0.1483,-0.145,-0.1455,-0.1413,-0.139,-0.1391,-0.1306,-0.1281,-0.1245,-0.1188,-0.1258,-0.1162,-0.1139,-0.1103,-0.1189,-0.1073,-0.1076,-0.0992,-0.0989,-0.0987,-0.0985,0,0,-0.1267,-0.1419,-0.1428,-0.1504,-0.1525,-0.1552,-0.1583,-0.1614,-0.1653,-0.1588,-0.1636,-0.1577,-0.1532,-0.1501,-0.1425,-0.1437,-0.1461,-0.1343,-0.134,-0.1274,-0.1411,-0.1152,-0.1128,-0.1458,-0.1461,-0.1464,-0.1262,0,-0.1346,-0.1509,-0.1547,-0.1683,-0.1764,-0.1752,-0.1796,-0.1803,-0.1772,-0.1788,-0.1728,-0.1718,-0.1624,-0.1609,-0.1618,-0.1506,-0.1489,-0.1513,-0.1314,-0.1307,-0.1092,-0.1133,-0.0995,-0.079,-0.1265,-0.1265,-0.1265,0,-0.1401,-0.1526,-0.1684,-0.1868,-0.1898,-0.195,-0.2024,-0.2055,-0.2056,-0.2036,-0.2026,-0.1941,-0.1936,-0.1836,-0.1734,-0.1747,-0.161,-0.151,-0.1499,-0.1219,-0.1059,-0.0791,-0.0777,-0.055,-0.1269,-0.1269,-0.1269,0,-0.1402,-0.1618,-0.1764,-0.1816,-0.1978,-0.2049,-0.2111,-0.2132,-0.2179,-0.2181,-0.2188,-0.2154,-0.2094,-0.2001,-0.1743,-0.1763,-0.1577,-0.1574,-0.1202,-0.1177,-0.1003,-0.0957,-0.0781,-0.1526,-0.1526,-0.1527,-0.1527,0,-0.1469,-0.1594,-0.1792,-0.1869,-0.2058,-0.2115,-0.226,-0.23,-0.2345,-0.2395,-0.2316,-0.2295,-0.214,-0.1977,-0.1798,-0.1459,-0.1609,-0.1231,-0.1136,-0.1041,-0.1003,-0.0749,-0.0693,-0.1519,-0.1521,-0.1522,-0.1524,0,-0.1453,-0.1578,-0.1767,-0.1983,-0.2066,-0.2175,-0.2373,-0.2468,-0.2477,-0.2525,-0.2525,-0.2404,-0.2165,-0.1919,-0.1683,-0.1464,-0.1028,-0.1049,-0.0872,-0.076,-0.0226,-0.0186,0.0062,0.0211,-0.066,-0.0653,-0.0647,0,-0.1455,-0.1559,-0.1829,-0.196,-0.2076,-0.2267,-0.2411,-0.2517,-0.2584,-0.2562,-0.2572,-0.2349,-0.2115,-0.1608,-0.1213,-0.0793,-0.0701,-0.0419,-0.0464,-0.0172,-0.0061,-0.0068,0.0035,-0.0267,-0.0259,-0.0252,-0.0246,0,-0.1491,-0.1579,-0.1753,-0.2009,-0.2197,-0.2413,-0.2592,-0.264,-0.2705,-0.2654,-0.2492,-0.2289,-0.1769,-0.1186,-0.061,-0.0395,-0.0222,-0.0255,-0.0061,0.0175,0.0275,0.046,-0.035,-0.0183,-0.0189,-0.0194,-0.0197,-0.02,-0.1476,-0.1641,-0.1859,-0.2094,-0.2309,-0.2481,-0.2506,-0.2581,-0.2564,-0.2293,-0.228,-0.1764,-0.1126,-0.0275,-0.0041,0.0543,0.0341,0.0666,0.0675,0.0631,0.0806,0.0215,0.0553,0.0551,0.0549,0.0548,0.0546,0,-0.1483,-0.1722,-0.1951,-0.2209,-0.2366,-0.2471,-0.2579,-0.2431,-0.2218,-0.1928,-0.1601,-0.0763,-0.006,0.0474,0.1203,0.1457,0.1415,0.1516,0.1465,0.1511,0.0913,0.0965,0.1538,0.1538,0.1538,0.1538,0.1537,0.1537,-0.1512,-0.1764,-0.1934,-0.2189,-0.2317,-0.2318,-0.227,-0.1984,-0.1673,-0.0953,-0.0373,0.0022,0.0644,0.1505,0.2101,0.2134,0.2274,0.2241,0.2297,0.1827,0.1744,0.1665,0.1728,0.2453,0.2454,0.2892,0.2897,0.29]}],[{"header":{"parameterUnit":"m.s-1","parameterCategory":2,"la1":30.2991,"la2":30.254,"lo1":-89.0895,"lo2":-89.0444,"dy":0.0017,"dx":0.0017,"nx":28,"ny":28,"refTime":"2023-07-31T09:00:00:Z","depth":"2","parameterNumber":2,"parameterNumberName":"U-component_of_CURRENTS"},"data":[0,0,0,0,0,0,0,0,0,0,0,0,0,0,0,0,0,0,0,0,0,0,0,0,0,0,0,0,0,0,0,0,0,0,0,0,0,0,0,0,0,0,0,0,0,0,0,0,0,0,0,0,0,0,0,0,0,0,-0.2096,-0.2097,0,-0.2182,-0.2182,-0.2183,-0.2218,-0.2218,-0.2218,-0.2218,-0.2402,-0.2406,-0.2411,0,0,0,0,0,0,0,0,0,0,0,0,0,-0.2001,-0.2002,-0.2096,-0.2097,-0.2098,-0.2182,-0.2182,-0.2183,-0.2218,-0.2218,-0.2218,-0.2219,-0.24,-0.2406,-0.2412,0,0,0,0,0,0,0,0,0,0,0,0,0,-0.2057,-0.2002,-0.2095,-0.2128,-0.2132,-0.2181,-0.2182,-0.2184,-0.2218,-0.2218,-0.2218,-0.2219,-0.2398,-0.2405,-0.2412,-0.2453,0,0,-0.2434,-0.2437,0,0,0,0,0,0,0,0,-0.2053,-0.206,-0.2122,-0.2126,-0.2131,-0.2192,-0.2217,-0.228,-0.2218,-0.2182,-0.2218,-0.2219,-0.2343,-0.2355,-0.2364,-0.2461,-0.2469,-0.2435,-0.2439,-0.2442,-0.2444,0,0,0,0,0,0,0,-0.2049,-0.2056,-0.2126,-0.2124,-0.2129,-0.2153,-0.216,-0.2228,-0.2259,-0.2185,-0.2189,-0.2204,-0.2346,-0.2357,-0.2369,-0.2472,-0.2435,-0.2441,-0.2445,-0.2448,-0.251,-0.2507,0,0,0,0,0,0,-0.2044,-0.2053,-0.2123,-0.2129,-0.2096,-0.2154,-0.2162,-0.217,-0.2257,-0.227,-0.2203,-0.2205,-0.2345,-0.2361,-0.2376,-0.2406,-0.2442,-0.2449,-0.2453,-0.2512,-0.2509,-0.2506,0,0,0,0,0,0,-0.2041,-0.2049,-0.212,-0.2096,-0.2107,-0.2156,-0.2164,-0.2171,-0.2202,-0.227,-0.2285,-0.2229,-0.2345,-0.2366,-0.2409,-0.2415,-0.2452,-0.2459,-0.2516,-0.2511,-0.2508,-0.2482,0,0,0,0,0,0,-0.2038,-0.2047,-0.2053,-0.2095,-0.2109,-0.2147,-0.2164,-0.2173,-0.2212,-0.2215,-0.2298,-0.2313,-0.2347,-0.2398,-0.2416,-0.2425,-0.2464,-0.2519,-0.2514,-0.2509,-0.2487,-0.2478,-0.2471,0,0,0,0,0,-0.2034,-0.2042,-0.2052,-0.2062,-0.2114,-0.2148,-0.2156,-0.2189,-0.2213,-0.2219,-0.2253,-0.2311,-0.2378,-0.2403,-0.2425,-0.2436,-0.2521,-0.2515,-0.2509,-0.249,-0.248,-0.2471,0,0,0,0,0,0,-0.2007,-0.2048,-0.206,-0.208,-0.211,-0.2155,-0.2166,-0.2201,-0.2234,-0.2235,-0.2303,-0.232,-0.2346,-0.2384,-0.2409,-0.2424,-0.2451,-0.2449,-0.2428,-0.2419,-0.2411,-0.2429,-0.247,0,0,0,0,0,-0.2003,-0.2014,-0.2058,-0.2071,-0.2084,-0.213,-0.2152,-0.2173,-0.221,-0.2226,-0.2279,-0.2313,-0.2335,-0.2374,-0.2391,-0.2438,-0.2451,-0.2442,-0.2434,-0.2428,-0.2448,-0.2454,-0.245,-0.2487,-0.2487,-0.2487,0,0,-0.1998,-0.202,-0.2028,-0.2066,-0.2087,-0.2116,-0.2142,-0.2167,-0.2195,-0.2243,-0.2286,-0.2295,-0.2332,-0.2347,-0.2365,-0.2393,-0.2411,-0.2421,-0.2416,-0.244,-0.2447,-0.2445,-0.2442,-0.2483,-0.2483,-0.2484,0,0,-0.1992,-0.2007,-0.2016,-0.2041,-0.2076,-0.2103,-0.2117,-0.2161,-0.218,-0.2216,-0.2231,-0.2241,-0.2307,-0.2318,-0.2339,-0.2305,-0.2355,-0.2302,-0.2314,-0.2318,-0.2316,-0.2316,-0.2287,-0.2285,-0.2317,-0.2317,-0.2317,0,-0.1992,-0.2005,-0.2025,-0.2043,-0.2068,-0.2103,-0.2127,-0.2153,-0.2204,-0.222,-0.222,-0.2263,-0.2292,-0.2322,-0.2289,-0.2297,-0.2295,-0.2359,-0.2313,-0.2313,-0.2313,-0.2285,-0.2282,-0.2315,-0.2316,-0.2316,-0.2316,0,-0.1992,-0.2011,-0.2016,-0.2051,-0.2077,-0.2096,-0.2137,-0.2157,-0.2183,-0.2211,-0.2228,-0.2239,-0.227,-0.2262,-0.2278,-0.2284,-0.2277,-0.2292,-0.2353,-0.2309,-0.2279,-0.2277,-0.2313,-0.2313,-0.2314,-0.2314,0,0,-0.1981,-0.2013,-0.2017,-0.2033,-0.2082,-0.2101,-0.2137,-0.2179,-0.2208,-0.2225,-0.2256,-0.226,-0.2261,-0.2279,-0.2286,-0.2295,-0.2265,-0.2298,-0.2299,-0.2297,-0.2252,-0.2153,-0.2142,-0.2283,-0.2283,-0.2284,-0.2219,0,-0.1982,-0.2005,-0.2029,-0.2063,-0.2081,-0.2121,-0.2156,-0.2192,-0.2219,-0.2249,-0.2256,-0.2275,-0.2273,-0.2276,-0.2282,-0.2272,-0.2264,-0.228,-0.2273,-0.2272,-0.2214,-0.2138,-0.1976,-0.1898,-0.2217,-0.2217,-0.2217,0,-0.1982,-0.1996,-0.2018,-0.2066,-0.2079,-0.2105,-0.2156,-0.2191,-0.2237,-0.2254,-0.2276,-0.229,-0.2297,-0.2293,-0.228,-0.2292,-0.2269,-0.2259,-0.2256,-0.2184,-0.2171,-0.1998,-0.1882,-0.2214,-0.2214,-0.2214,-0.2214,0,-0.1952,-0.1996,-0.2006,-0.2023,-0.2079,-0.2094,-0.2128,-0.2182,-0.2211,-0.2253,-0.2271,-0.2292,-0.2293,-0.2285,-0.2259,-0.2272,-0.2234,-0.2249,-0.2136,-0.2128,-0.1999,-0.1979,-0.2234,-0.2234,-0.2234,-0.2234,-0.2235,0,-0.1945,-0.196,-0.1987,-0.1994,-0.2014,-0.2063,-0.2094,-0.2135,-0.2188,-0.2216,-0.2262,-0.2277,-0.2294,-0.2281,-0.2257,-0.2174,-0.2228,-0.2121,-0.2105,-0.1975,-0.1955,-0.2253,-0.2256,-0.2232,-0.2232,-0.2233,-0.2233,0,-0.1908,-0.1932,-0.1943,-0.1982,-0.1996,-0.2003,-0.2066,-0.209,-0.2149,-0.2185,-0.2198,-0.2255,-0.2217,-0.2213,-0.2185,-0.215,-0.2097,-0.2058,-0.1886,-0.1849,-0.1986,-0.1988,-0.1915,-0.1911,-0.1908,-0.1905,-0.1902,0,-0.1888,-0.1883,-0.191,-0.1913,-0.1925,-0.195,-0.1973,-0.2049,-0.2074,-0.2163,-0.2166,-0.2169,-0.2133,-0.2046,-0.1964,-0.1869,-0.1978,-0.1704,-0.1697,-0.1962,-0.1954,-0.1961,-0.1968,-0.1498,-0.1493,-0.1488,-0.1485,0,-0.1833,-0.1837,-0.184,-0.184,-0.1853,-0.188,-0.1914,-0.1941,-0.2028,-0.2055,-0.2108,-0.2093,-0.1987,-0.1803,-0.1663,-0.1604,-0.1704,-0.1607,-0.1928,-0.1607,-0.1564,-0.1558,-0.1579,-0.1444,-0.1448,-0.1451,-0.1453,-0.1455,-0.178,-0.1761,-0.1754,-0.1754,-0.1775,-0.1798,-0.1777,-0.1824,-0.1847,-0.1856,-0.1976,-0.1871,-0.1795,-0.1466,-0.1367,-0.128,-0.1398,-0.1361,-0.1376,-0.1397,-0.1363,-0.1317,-0.1142,-0.1145,-0.1146,-0.1148,-0.115,0,-0.17,-0.1686,-0.1674,-0.1661,-0.1637,-0.1688,-0.1718,-0.1669,-0.164,-0.1663,-0.168,-0.1455,-0.1285,-0.1193,-0.0977,-0.0936,-0.0951,-0.0913,-0.0941,-0.0979,-0.1014,-0.0964,-0.0636,-0.0635,-0.0633,-0.0632,0,0,-0.1652,-0.1606,-0.1595,-0.1517,-0.1507,-0.1389,-0.138,-0.1347,-0.1319,-0.1239,-0.1158,-0.1276,-0.1189,-0.0946,-0.086,-0.0715,-0.0856,-0.0677,-0.1084,-0.1158,-0.1192,-0.1255,-0.1219,0,0,0,0,0]},{"header":{"parameterUnit":"m.s-1","parameterCategory":2,"la1":30.2991,"la2":30.254,"lo1":-89.0895,"lo2":-89.0444,"dy":0.0017,"dx":0.0017,"nx":28,"ny":28,"refTime":"2023-07-31T09:00:00:Z","depth":"2","parameterNumber":3,"parameterNumberName":"V-component_of_CURRENTS"},"data":[0,0,0,0,0,0,0,0,0,0,0,0,0,0,0,0,0,0,0,0,0,0,0,0,0,0,0,0,0,0,0,0,0,0,0,0,0,0,0,0,0,0,0,0,0,0,0,0,0,0,0,0,0,0,0,0,0,0,-0.019,-0.0189,0,-0.0084,-0.0083,-0.0082,-0.0003,-0.0002,-0.0002,-0.0001,0.0246,0.0252,0.0258,0,0,0,0,0,0,0,0,0,0,0,0,0,-0.0268,-0.0267,-0.019,-0.0189,-0.0187,-0.0085,-0.0083,-0.0082,-0.0003,-0.0002,-0.0002,-0.0001,0.0244,0.0251,0.0259,0,0,0,0,0,0,0,0,0,0,0,0,0,-0.0205,-0.0267,-0.019,-0.0136,-0.013,-0.0085,-0.0083,-0.0081,-0.0003,-0.0002,-0.0001,-0.0,0.0242,0.0251,0.026,0.0295,0,0,0.0287,0.0291,0,0,0,0,0,0,0,0,-0.0209,-0.0202,-0.0145,-0.014,-0.0133,-0.0056,-0.002,0.0052,-0.0004,-0.0051,-0.0001,0.0,0.0157,0.0173,0.019,0.0307,0.0318,0.0288,0.0293,0.0297,0.03,0,0,0,0,0,0,0,-0.0213,-0.0206,-0.0147,-0.0144,-0.0137,-0.0098,-0.0089,-0.0006,0.0049,-0.0047,-0.0041,-0.003,0.0162,0.0181,0.0196,0.0321,0.0288,0.0295,0.0301,0.0305,0.0438,0.0437,0,0,0,0,0,0,-0.0231,-0.021,-0.0151,-0.0144,-0.017,-0.0098,-0.0087,-0.0082,0.0046,0.0065,-0.0031,-0.0027,0.0165,0.0186,0.0206,0.0259,0.0297,0.0305,0.0311,0.044,0.0438,0.0436,0,0,0,0,0,0,-0.0234,-0.0227,-0.0155,-0.0175,-0.0163,-0.0098,-0.0092,-0.008,-0.0052,0.0056,0.0078,-0.0015,0.0166,0.0193,0.0254,0.0269,0.0309,0.0318,0.0442,0.044,0.0437,0.0365,0,0,0,0,0,0,-0.0236,-0.0229,-0.0231,-0.0177,-0.0163,-0.0133,-0.0093,-0.0079,-0.0048,-0.0041,0.0078,0.0101,0.0169,0.0239,0.0263,0.0282,0.0325,0.0445,0.0441,0.0438,0.0369,0.036,0.0351,0,0,0,0,0,-0.024,-0.0244,-0.0232,-0.0224,-0.0168,-0.0134,-0.0124,-0.0073,-0.0048,-0.0042,0.0018,0.0097,0.0234,0.0245,0.0273,0.0296,0.0446,0.0442,0.0438,0.0373,0.0362,0.0352,0,0,0,0,0,0,-0.0274,-0.0235,-0.022,-0.0211,-0.018,-0.0121,-0.011,-0.0076,-0.0024,-0.0016,0.0084,0.0111,0.0163,0.0226,0.0235,0.0314,0.035,0.0351,0.0291,0.0281,0.0273,0.0271,0.0332,0,0,0,0,0,-0.0287,-0.0283,-0.0238,-0.0234,-0.0221,-0.0168,-0.0147,-0.0116,-0.0064,-0.004,0.0035,0.0106,0.0165,0.0219,0.0272,0.0335,0.0392,0.0358,0.035,0.0342,0.0353,0.0426,0.0426,0.0423,0.0423,0.0423,0,0,-0.0299,-0.0278,-0.0274,-0.0242,-0.0213,-0.0201,-0.0153,-0.0129,-0.011,-0.0019,0.0026,0.0078,0.0166,0.0215,0.0247,0.0279,0.0366,0.0337,0.033,0.0346,0.0422,0.0423,0.0424,0.042,0.042,0.0421,0,0,-0.0322,-0.0305,-0.0309,-0.0289,-0.0256,-0.0227,-0.0223,-0.0171,-0.0138,-0.0098,-0.004,0.0014,0.0114,0.0177,0.0225,0.0202,0.0302,0.0215,0.0203,0.0272,0.0274,0.0276,0.0331,0.0339,0.023,0.0229,0.0229,0,-0.034,-0.0336,-0.0305,-0.0303,-0.029,-0.0243,-0.0242,-0.0205,-0.0141,-0.0111,-0.0096,0.0025,0.0099,0.0179,0.0162,0.0191,0.0236,0.0244,0.0264,0.0268,0.0272,0.0328,0.0338,0.0226,0.0226,0.0226,0.0227,0,-0.0361,-0.0359,-0.0361,-0.0347,-0.0331,-0.0325,-0.0279,-0.0254,-0.0216,-0.0171,-0.0105,-0.0026,0.0054,0.0078,0.0125,0.0187,0.0209,0.0232,0.03,0.0269,0.0328,0.034,0.022,0.0221,0.0222,0.0223,0,0,-0.04,-0.0381,-0.0383,-0.0384,-0.0355,-0.0345,-0.0319,-0.0275,-0.025,-0.0189,-0.0141,-0.0052,-0.0009,0.0043,0.0108,0.0176,0.0235,0.0215,0.022,0.0283,0.0379,0.0381,0.0394,0.0266,0.0267,0.0269,0.0404,0,-0.0428,-0.0439,-0.0418,-0.0429,-0.0432,-0.0388,-0.0368,-0.0323,-0.0273,-0.022,-0.0124,-0.0066,-0.0019,0.0016,0.009,0.0201,0.0265,0.0196,0.0388,0.0394,0.0412,0.0408,0.0384,0.0501,0.0416,0.0418,0.042,0,-0.0458,-0.0461,-0.0478,-0.0468,-0.0465,-0.0463,-0.0425,-0.0401,-0.0314,-0.0272,-0.0194,-0.0122,-0.0009,0.0019,0.0213,0.0165,0.0262,0.0345,0.0353,0.0395,0.0418,0.052,0.0527,0.044,0.0439,0.0437,0.0436,0,-0.0507,-0.0505,-0.0521,-0.0518,-0.0498,-0.0491,-0.0479,-0.0417,-0.0396,-0.0305,-0.0276,-0.0139,-0.0063,0.0076,0.0242,0.0234,0.0446,0.0461,0.0553,0.0554,0.0593,0.0594,0.0587,0.0587,0.0587,0.0587,0.0586,0,-0.0546,-0.056,-0.0545,-0.0556,-0.0571,-0.0541,-0.0542,-0.0503,-0.0451,-0.0423,-0.0311,-0.0244,-0.0045,0.0099,0.0239,0.0434,0.0449,0.0558,0.0595,0.0561,0.0558,0.0556,0.055,0.0592,0.0591,0.059,0.0589,0,-0.0592,-0.0585,-0.0607,-0.0597,-0.0596,-0.0609,-0.0603,-0.0603,-0.0542,-0.0501,-0.0475,-0.0305,-0.011,0.0077,0.0323,0.0434,0.0614,0.0672,0.0609,0.0635,0.0676,0.0665,0.0802,0.0803,0.0804,0.0805,0.0806,0,-0.0616,-0.0631,-0.0646,-0.0668,-0.0666,-0.0679,-0.0694,-0.0656,-0.065,-0.0528,-0.0507,-0.0316,-0.0138,0.0207,0.0421,0.0665,0.0655,0.0761,0.0743,0.0679,0.0702,0.0688,0.0676,0.0765,0.0765,0.0766,0.0766,0,-0.0656,-0.0661,-0.0678,-0.0733,-0.0762,-0.0788,-0.0796,-0.0803,-0.0742,-0.0685,-0.0543,-0.0381,-0.0029,0.0267,0.0558,0.0682,0.0718,0.0774,0.0757,0.0697,0.0651,0.067,0.0658,0.0769,0.0768,0.0768,0.0768,0.0768,-0.0691,-0.071,-0.0744,-0.08,-0.0843,-0.0889,-0.0918,-0.0898,-0.0876,-0.0747,-0.0552,-0.0276,-0.0015,0.043,0.0624,0.078,0.0788,0.083,0.0827,0.0824,0.0778,0.0735,0.086,0.086,0.086,0.086,0.086,0,-0.073,-0.0756,-0.0811,-0.0882,-0.0959,-0.0957,-0.0985,-0.1,-0.0972,-0.0727,-0.0522,-0.0204,0.0162,0.0417,0.07,0.0868,0.0845,0.086,0.0816,0.0813,0.081,0.0761,0.084,0.0841,0.0841,0.0841,0,0,-0.075,-0.0805,-0.0837,-0.0976,-0.1033,-0.1105,-0.1127,-0.1109,-0.0961,-0.0743,-0.0486,-0.0133,0.0203,0.037,0.0578,0.0741,0.0722,0.0729,0.0731,0.0652,0.0647,0.0782,0.0702,0,0,0,0,0]}],[{"header":{"parameterUnit":"m.s-1","parameterCategory":2,"la1":30.2991,"la2":30.254,"lo1":-89.0895,"lo2":-89.0444,"dy":0.0017,"dx":0.0017,"nx":28,"ny":28,"refTime":"2023-07-31T09:00:00:Z","depth":"4","parameterNumber":2,"parameterNumberName":"U-component_of_CURRENTS"},"data":[0,0,0,0,0,0,0,0,0,0,0,0,0,0,0,0,0,0,0,0,0,0,0,0,0,0,0,0,0,0,0,0,0,0,0,0,0,0,0,0,0,0,0,0,0,0,0,0,0,0,0,0,0,0,0,0,0,0,-0.1511,-0.1511,0,-0.1552,-0.1552,-0.1553,-0.1584,-0.1585,-0.1585,-0.1585,-0.1639,-0.164,-0.1641,0,0,0,0,0,0,0,0,0,0,0,0,0,-0.1443,-0.1444,-0.1511,-0.1511,-0.1512,-0.1552,-0.1552,-0.1553,-0.1584,-0.1585,-0.1585,-0.1586,-0.1638,-0.164,-0.1641,0,0,0,0,0,0,0,0,0,0,0,0,0,-0.1476,-0.1445,-0.1511,-0.1534,-0.1536,-0.1552,-0.1552,-0.1553,-0.1584,-0.1585,-0.1585,-0.1586,-0.1638,-0.1639,-0.1641,-0.1636,0,0,-0.1645,-0.1646,0,0,0,0,0,0,0,0,-0.1474,-0.1478,-0.153,-0.1532,-0.1535,-0.1565,-0.1548,-0.1582,-0.1584,-0.1564,-0.1585,-0.1586,-0.1616,-0.1619,-0.1623,-0.1639,-0.1641,-0.1646,-0.1646,-0.1647,-0.1648,0,0,0,0,0,0,0,-0.1472,-0.1476,-0.1525,-0.153,-0.1534,-0.1537,-0.1542,-0.1555,-0.1584,-0.1566,-0.1569,-0.1576,-0.1617,-0.1621,-0.1624,-0.1642,-0.1646,-0.1647,-0.1648,-0.1648,-0.1717,-0.1718,0,0,0,0,0,0,-0.147,-0.1474,-0.1524,-0.1527,-0.1508,-0.1538,-0.1544,-0.1553,-0.1584,-0.159,-0.1575,-0.1577,-0.1618,-0.1623,-0.1626,-0.1699,-0.1647,-0.1649,-0.1649,-0.1716,-0.1718,-0.1719,0,0,0,0,0,0,-0.1469,-0.1474,-0.1522,-0.1503,-0.1509,-0.1539,-0.1549,-0.1554,-0.1584,-0.1592,-0.1597,-0.1604,-0.1619,-0.1624,-0.1659,-0.1699,-0.1649,-0.1651,-0.1715,-0.1717,-0.1718,-0.1796,0,0,0,0,0,0,-0.1467,-0.1474,-0.1491,-0.1503,-0.151,-0.1546,-0.1549,-0.1554,-0.1587,-0.1591,-0.1617,-0.1622,-0.162,-0.1657,-0.1661,-0.17,-0.1652,-0.1714,-0.1716,-0.1718,-0.1792,-0.18,-0.1806,0,0,0,0,0,-0.1464,-0.1481,-0.1492,-0.1499,-0.153,-0.1547,-0.1551,-0.1572,-0.1588,-0.1602,-0.1624,-0.1622,-0.1671,-0.1659,-0.1663,-0.1704,-0.1713,-0.1715,-0.1718,-0.1789,-0.1798,-0.1806,0,0,0,0,0,0,-0.1462,-0.1486,-0.1498,-0.1523,-0.1542,-0.1553,-0.1573,-0.1588,-0.1616,-0.1627,-0.1635,-0.1641,-0.1687,-0.1678,-0.1665,-0.1726,-0.1691,-0.1694,-0.1744,-0.1753,-0.176,-0.1752,-0.1653,0,0,0,0,0,-0.147,-0.149,-0.1509,-0.1531,-0.1543,-0.1564,-0.1579,-0.1593,-0.1614,-0.1628,-0.1651,-0.1671,-0.1693,-0.1711,-0.1723,-0.1757,-0.173,-0.1783,-0.1791,-0.1797,-0.1792,-0.1786,-0.1792,-0.1726,-0.1726,-0.1726,0,0,-0.1477,-0.1492,-0.1506,-0.1533,-0.155,-0.1579,-0.1575,-0.1604,-0.1638,-0.1629,-0.1689,-0.1699,-0.1707,-0.1747,-0.1767,-0.175,-0.1801,-0.1799,-0.1805,-0.1796,-0.1788,-0.1795,-0.1801,-0.1727,-0.1727,-0.1727,0,0,-0.149,-0.1515,-0.1534,-0.1555,-0.1586,-0.1601,-0.1617,-0.1646,-0.1671,-0.1717,-0.1724,-0.1754,-0.1792,-0.1804,-0.1814,-0.1865,-0.1839,-0.1877,-0.1912,-0.1907,-0.1913,-0.1917,-0.189,-0.1892,-0.1881,-0.1882,-0.1882,0,-0.1501,-0.1528,-0.1542,-0.1568,-0.1594,-0.1618,-0.1649,-0.1678,-0.1719,-0.174,-0.1747,-0.1806,-0.1817,-0.1862,-0.1883,-0.1884,-0.1866,-0.1884,-0.1917,-0.1921,-0.1924,-0.1895,-0.1896,-0.1886,-0.1885,-0.1885,-0.1884,0,-0.152,-0.1557,-0.1572,-0.1617,-0.1645,-0.1675,-0.1714,-0.1752,-0.1788,-0.1812,-0.1868,-0.1881,-0.1908,-0.1928,-0.1925,-0.1962,-0.1937,-0.1928,-0.1897,-0.1935,-0.1902,-0.1902,-0.1891,-0.189,-0.1889,-0.1888,0,0,-0.1505,-0.1573,-0.1582,-0.1614,-0.1675,-0.1695,-0.176,-0.181,-0.1849,-0.1895,-0.1936,-0.1986,-0.1986,-0.1995,-0.2,-0.2005,-0.2018,-0.1982,-0.198,-0.1957,-0.1994,-0.1859,-0.1845,-0.202,-0.202,-0.202,-0.1962,0,-0.1519,-0.1571,-0.1607,-0.1673,-0.1705,-0.1755,-0.181,-0.186,-0.1903,-0.1948,-0.1973,-0.2011,-0.2016,-0.2029,-0.204,-0.2019,-0.2019,-0.2034,-0.1957,-0.1954,-0.1832,-0.184,-0.2021,-0.1961,-0.1961,-0.196,-0.196,0,-0.1522,-0.1559,-0.1619,-0.17,-0.172,-0.1767,-0.1845,-0.1894,-0.1959,-0.1988,-0.2028,-0.2043,-0.2069,-0.206,-0.2049,-0.2059,-0.2033,-0.2015,-0.2012,-0.1854,-0.1817,-0.1913,-0.1958,-0.1958,-0.1958,-0.1958,-0.1958,0,-0.1484,-0.1568,-0.1616,-0.1645,-0.1738,-0.1779,-0.1831,-0.1905,-0.194,-0.2004,-0.2024,-0.2063,-0.2068,-0.2058,-0.2033,-0.204,-0.2001,-0.2,-0.1854,-0.1844,-0.1951,-0.1946,-0.1986,-0.1986,-0.1986,-0.1986,-0.1986,0,-0.147,-0.1517,-0.1606,-0.1631,-0.1691,-0.1762,-0.1822,-0.1879,-0.1943,-0.1961,-0.2033,-0.2029,-0.2068,-0.2055,-0.2031,-0.1926,-0.1996,-0.1847,-0.1817,-0.1984,-0.1984,-0.1949,-0.1946,-0.1984,-0.1985,-0.1985,-0.1985,0,-0.1421,-0.1484,-0.1542,-0.164,-0.1674,-0.1711,-0.1806,-0.1834,-0.1912,-0.1931,-0.1947,-0.2,-0.1959,-0.1982,-0.1949,-0.1894,-0.1828,-0.178,-0.1944,-0.1928,-0.1675,-0.1676,-0.1592,-0.1586,-0.1582,-0.1578,-0.1575,0,-0.1399,-0.1424,-0.1526,-0.1553,-0.1601,-0.1668,-0.1705,-0.1801,-0.1815,-0.1879,-0.1861,-0.1871,-0.1882,-0.1726,-0.1767,-0.1705,-0.1694,-0.1661,-0.1678,-0.1653,-0.1634,-0.1642,-0.165,-0.1568,-0.1567,-0.1565,-0.1564,0,-0.1351,-0.1395,-0.1435,-0.148,-0.1525,-0.1568,-0.1622,-0.1625,-0.1702,-0.1788,-0.1717,-0.1687,-0.1637,-0.1606,-0.1579,-0.154,-0.1683,-0.1614,-0.1623,-0.1638,-0.1623,-0.161,-0.1623,-0.1549,-0.1551,-0.1552,-0.1553,0,-0.1309,-0.1317,-0.136,-0.1387,-0.144,-0.1439,-0.1489,-0.1484,-0.1509,-0.1584,-0.1542,-0.1553,-0.1597,-0.1516,-0.1483,-0.1441,-0.1416,-0.1385,-0.1406,-0.1424,-0.1398,-0.1356,-0.1159,0,0,0,0,0,-0.1259,-0.1247,-0.1263,-0.127,-0.1312,-0.1328,-0.1415,-0.1461,-0.1536,-0.1439,-0.1488,-0.1428,-0.1361,-0.1372,-0.1288,-0.1411,-0.1435,-0.131,-0.1416,-0.1462,-0.148,-0.1467,0,0,0,0,0,0,-0.122,-0.1235,-0.1222,-0.1159,-0.1132,-0.1151,-0.1197,-0.1253,-0.1211,-0.1296,-0.1263,-0.1323,-0.128,-0.136,-0.1242,-0.1247,-0.1284,-0.1327,-0.1323,-0.1452,-0.1468,-0.1483,-0.1475,0,0,0,0,0]},{"header":{"parameterUnit":"m.s-1","parameterCategory":2,"la1":30.2991,"la2":30.254,"lo1":-89.0895,"lo2":-89.0444,"dy":0.0017,"dx":0.0017,"nx":28,"ny":28,"refTime":"2023-07-31T09:00:00:Z","depth":"4","parameterNumber":3,"parameterNumberName":"V-component_of_CURRENTS"},"data":[0,0,0,0,0,0,0,0,0,0,0,0,0,0,0,0,0,0,0,0,0,0,0,0,0,0,0,0,0,0,0,0,0,0,0,0,0,0,0,0,0,0,0,0,0,0,0,0,0,0,0,0,0,0,0,0,0,0,-0.0174,-0.0174,0,-0.0127,-0.0127,-0.0126,-0.0088,-0.0088,-0.0087,-0.0087,-0.0029,-0.0028,-0.0026,0,0,0,0,0,0,0,0,0,0,0,0,0,-0.0208,-0.0207,-0.0174,-0.0174,-0.0173,-0.0127,-0.0126,-0.0126,-0.0088,-0.0088,-0.0087,-0.0087,-0.0029,-0.0028,-0.0026,0,0,0,0,0,0,0,0,0,0,0,0,0,-0.018,-0.0207,-0.0174,-0.0149,-0.0146,-0.0127,-0.0126,-0.0126,-0.0088,-0.0088,-0.0087,-0.0086,-0.003,-0.0028,-0.0026,-0.0027,0,0,-0.0021,-0.002,0,0,0,0,0,0,0,0,-0.0182,-0.0179,-0.0153,-0.015,-0.0147,-0.0113,-0.0117,-0.0092,-0.0088,-0.011,-0.0087,-0.0086,-0.0056,-0.0052,-0.0045,-0.0024,-0.0021,-0.002,-0.0019,-0.0019,-0.0018,0,0,0,0,0,0,0,-0.0184,-0.0181,-0.0155,-0.0152,-0.0149,-0.0131,-0.0127,-0.0112,-0.0087,-0.0108,-0.0105,-0.01,-0.0055,-0.0047,-0.0043,-0.0021,-0.002,-0.0019,-0.0018,-0.0017,0.0035,0.0036,0,0,0,0,0,0,-0.0192,-0.0183,-0.0157,-0.0154,-0.0163,-0.0131,-0.0126,-0.0124,-0.0087,-0.0081,-0.0101,-0.0099,-0.005,-0.0045,-0.0041,-0.0007,-0.0019,-0.0017,-0.0016,0.0035,0.0035,0.0036,0,0,0,0,0,0,-0.0193,-0.019,-0.0159,-0.0167,-0.0162,-0.0132,-0.0129,-0.0124,-0.0116,-0.0082,-0.0075,-0.0098,-0.0049,-0.0043,-0.0026,-0.0006,-0.0016,-0.0015,0.0035,0.0035,0.0035,0.0039,0,0,0,0,0,0,-0.0194,-0.0191,-0.0195,-0.0168,-0.0162,-0.0152,-0.013,-0.0123,-0.0113,-0.011,-0.0077,-0.0071,-0.0048,-0.0029,-0.0024,-0.0004,-0.0013,0.0034,0.0035,0.0035,0.0038,0.0039,0.004,0,0,0,0,0,-0.0195,-0.0202,-0.0195,-0.0192,-0.0167,-0.0152,-0.0148,-0.0124,-0.0114,-0.0114,-0.0089,-0.0072,-0.0021,-0.0027,-0.0022,-0.0001,0.0034,0.0035,0.0035,0.0038,0.0039,0.004,0,0,0,0,0,0,-0.0218,-0.0198,-0.019,-0.019,-0.0175,-0.0146,-0.0145,-0.0129,-0.011,-0.0108,-0.0074,-0.0067,-0.0042,-0.0028,-0.0036,0.0015,0.0011,0.0013,0.0012,0.0013,0.0014,0.0011,-0.0012,0,0,0,0,0,-0.0227,-0.0228,-0.0204,-0.0207,-0.0201,-0.0175,-0.0167,-0.0152,-0.013,-0.0121,-0.0097,-0.0068,-0.0035,-0.0019,0.0003,0.0025,0.0052,0.0044,0.0045,0.0045,0.0046,0.0113,0.012,0.0038,0.0038,0.0038,0,0,-0.0237,-0.0227,-0.0227,-0.0212,-0.0199,-0.0194,-0.0169,-0.0162,-0.0149,-0.0119,-0.01,-0.007,-0.0031,0.0,0.0013,0.0015,0.008,0.0046,0.0047,0.0047,0.0114,0.0123,0.013,0.0038,0.0038,0.0038,0,0,-0.0258,-0.025,-0.0257,-0.0246,-0.0231,-0.0214,-0.0214,-0.0189,-0.0168,-0.0151,-0.0114,-0.007,-0.0044,0.0008,0.0034,0.0051,0.0078,0.0052,0.0063,0.0128,0.0135,0.0142,0.0175,0.0185,0.0059,0.0059,0.0059,0,-0.0272,-0.0274,-0.0257,-0.0259,-0.0252,-0.0226,-0.0228,-0.0205,-0.0175,-0.015,-0.0149,-0.0066,-0.0032,0.0039,0.0049,0.0057,0.008,0.0057,0.013,0.0138,0.0145,0.0177,0.0188,0.0059,0.0059,0.0059,0.0059,0,-0.0292,-0.0296,-0.03,-0.0293,-0.0285,-0.0284,-0.0251,-0.0234,-0.021,-0.0177,-0.0117,-0.0063,-0.0009,0.0017,0.0039,0.0114,0.0108,0.0121,0.0129,0.0154,0.0185,0.0197,0.006,0.0059,0.0059,0.0059,0,0,-0.0318,-0.0315,-0.0317,-0.0318,-0.0302,-0.0296,-0.0274,-0.0236,-0.0213,-0.0166,-0.0122,-0.004,-0.0006,0.0026,0.0074,0.0139,0.0214,0.0148,0.0151,0.0182,0.0333,0.0295,0.0304,0.0239,0.0241,0.0243,0.033,0,-0.0338,-0.0353,-0.0342,-0.0352,-0.0354,-0.0322,-0.0304,-0.0265,-0.0225,-0.018,-0.0089,-0.0043,-0.0003,0.0025,0.0101,0.0182,0.0245,0.0187,0.0302,0.0305,0.0271,0.0317,0.025,0.0339,0.0341,0.0343,0.0345,0,-0.0358,-0.0365,-0.0381,-0.0374,-0.0372,-0.0374,-0.0335,-0.0316,-0.0238,-0.0205,-0.0129,-0.0073,0.0035,0.0055,0.0221,0.0178,0.0253,0.0318,0.0323,0.0295,0.0289,0.0312,0.0366,0.0364,0.0363,0.0361,0.036,0,-0.0381,-0.0389,-0.0403,-0.0402,-0.0391,-0.0386,-0.0378,-0.0323,-0.0304,-0.0223,-0.0201,-0.0072,-0.0014,0.011,0.0238,0.0233,0.0407,0.0418,0.0457,0.0454,0.0459,0.0451,0.0539,0.0538,0.0538,0.0538,0.0538,0,-0.0397,-0.0411,-0.0418,-0.0425,-0.0438,-0.042,-0.0418,-0.0385,-0.0343,-0.0319,-0.0222,-0.0168,0.0004,0.0119,0.0236,0.0374,0.0409,0.0466,0.0484,0.0455,0.0445,0.0467,0.0457,0.0541,0.0541,0.054,0.0539,0,-0.0416,-0.0422,-0.0443,-0.0447,-0.0452,-0.0463,-0.0469,-0.0468,-0.042,-0.0388,-0.0367,-0.0231,-0.0079,0.008,0.0283,0.036,0.0501,0.054,0.0477,0.0488,0.0503,0.0492,0.0598,0.0597,0.0597,0.0597,0.0597,0,-0.0426,-0.0439,-0.0467,-0.0491,-0.0499,-0.0517,-0.0536,-0.051,-0.051,-0.042,-0.0407,-0.026,-0.0155,0.0095,0.0268,0.0478,0.0506,0.0562,0.0559,0.0507,0.0515,0.0505,0.0495,0.0596,0.0596,0.0596,0.0596,0,-0.0443,-0.0458,-0.0476,-0.0533,-0.0568,-0.0601,-0.0623,-0.0627,-0.0588,-0.0541,-0.0434,-0.0288,-0.012,0.0087,0.0241,0.0399,0.0519,0.056,0.0562,0.0559,0.0507,0.0512,0.0503,0.0595,0.0595,0.0595,0.0595,0,-0.0463,-0.0484,-0.0522,-0.0571,-0.0629,-0.0683,-0.0677,-0.0666,-0.0653,-0.055,-0.0506,-0.0309,-0.0176,0.0047,0.0199,0.0337,0.0377,0.0411,0.0421,0.0424,0.0346,0.0252,0.0288,0,0,0,0,0,-0.048,-0.0514,-0.0563,-0.063,-0.0694,-0.0728,-0.0741,-0.0727,-0.0679,-0.0621,-0.0565,-0.0404,-0.0153,-0.0024,0.0107,0.0186,0.0389,0.0342,0.0428,0.0588,0.059,0.0525,0,0,0,0,0,0,-0.0496,-0.0539,-0.0569,-0.0681,-0.0739,-0.0811,-0.0823,-0.0783,-0.0735,-0.0652,-0.0513,-0.0403,-0.0155,-0.0242,0.0096,0.0145,0.0211,0.0476,0.0479,0.0588,0.0589,0.059,0.0523,0,0,0,0,0]}]]